When you browse on this site, cookies collect data to enhance your experience and personalize the content and advertising you see.
Visit our Privacy Policy to learn more. By continuing to use the site, you agree to this use of cookies and data.
  • In Österreich
  • Länderverzeichnis
  • Für 7 Tage
  • Wassertemperatur
  • Wetterkarte
  • News
  • Widgets
  • user-avatar
    Anmelden

    Stündliche Wetter La Massana

    Heute, 24 Januar, Freitag

    Zeit Temperatur Niederschläge Wind Luftdruck Luftfeuchtigkeit
    00:00 -6°C° 0 mm 2 m/S 608 mmHg 85%
    01:00 -6°C° 0 mm 2 m/S 608 mmHg 84%
    02:00 -6°C° 0 mm 2 m/S 608 mmHg 84%
    03:00 -6°C° 0 mm 2 m/S 608 mmHg 84%
    04:00 -6°C° 0 mm 2 m/S 608 mmHg 83%
    05:00 -6°C° 0 mm 2 m/S 608 mmHg 83%
    06:00 -6°C° 0 mm 2 m/S 607 mmHg 82%
    07:00 -3°C° 0 mm 1 m/S 608 mmHg 82%
    08:00 -2°C° 0 mm 1 m/S 609 mmHg 82%
    09:00 -1°C° 0 mm 1 m/S 609 mmHg 82%
    10:00 0°C° 0 mm 1 m/S 610 mmHg 84%
    11:00 +1°C° 0 mm 1 m/S 610 mmHg 85%
    12:00 +3°C° 0 mm 1 m/S 610 mmHg 86%
    13:00 +2°C° 0 mm 1 m/S 610 mmHg 87%
    14:00 +2°C° 0 mm 1 m/S 610 mmHg 89%
    15:00 +2°C° 0 mm 1 m/S 609 mmHg 90%
    16:00 +1°C° 0 mm 1 m/S 609 mmHg 91%
    17:00 -1°C° 0 mm 1 m/S 608 mmHg 92%
    18:00 -2°C° 0 mm 1 m/S 608 mmHg 92%
    19:00 -2°C° 0 mm 1 m/S 608 mmHg 91%
    20:00 -3°C° 0 mm 1 m/S 608 mmHg 90%
    21:00 -5°C° 0 mm 2 m/S 608 mmHg 89%
    22:00 -5°C° 0 mm 2 m/S 608 mmHg 87%
    23:00 -5°C° 0 mm 2 m/S 608 mmHg 86%

    Morgen, 25 Januar, Samstag

    Zeit Temperatur Niederschläge Wind Luftdruck Luftfeuchtigkeit
    00:00 -5°C° 0 mm 2 m/S 608 mmHg 85%
    01:00 -5°C° 0 mm 2 m/S 608 mmHg 85%
    02:00 -5°C° 0 mm 2 m/S 607 mmHg 85%
    03:00 -4°C° 0 mm 2 m/S 607 mmHg 85%
    04:00 -5°C° 0 mm 2 m/S 607 mmHg 85%
    05:00 -5°C° 0 mm 2 m/S 607 mmHg 86%
    06:00 -3°C° 0 mm 1 m/S 607 mmHg 86%
    07:00 -2°C° 0 mm 1 m/S 608 mmHg 86%
    08:00 -1°C° 0 mm 1 m/S 608 mmHg 86%
    09:00 0°C° 0 mm 1 m/S 609 mmHg 85%
    10:00 +1°C° 0 mm 1 m/S 609 mmHg 86%
    11:00 -1°C° 0 mm 2 m/S 609 mmHg 86%
    12:00 +1°C° 0 mm 2 m/S 609 mmHg 87%
    13:00 +2°C° 0 mm 1 m/S 608 mmHg 88%
    14:00 +2°C° 0 mm 1 m/S 608 mmHg 89%
    15:00 +2°C° 0 mm 1 m/S 608 mmHg 91%
    16:00 +1°C° 0.2 mm 1 m/S 607 mmHg 92%
    17:00 -2°C° 0.2 mm 2 m/S 607 mmHg 93%
    18:00 -2°C° 0.2 mm 2 m/S 607 mmHg 95%
    19:00 -2°C° 0.1 mm 2 m/S 607 mmHg 95%
    20:00 0°C° 0.1 mm 1 m/S 607 mmHg 95%
    21:00 0°C° 0.1 mm 1 m/S 607 mmHg 95%
    22:00 -1°C° 0.1 mm 1 m/S 607 mmHg 95%
    23:00 -1°C° 0.1 mm 1 m/S 607 mmHg 95%

    übermorgen, 26 Januar, Sonntag

    Zeit Temperatur Niederschläge Wind Luftdruck Luftfeuchtigkeit
    00:00 -1°C° 0.1 mm 1 m/S 607 mmHg 95%
    01:00 -1°C° 0 mm 1 m/S 607 mmHg 95%
    02:00 -1°C° 0 mm 1 m/S 607 mmHg 95%
    03:00 -1°C° 0 mm 1 m/S 607 mmHg 95%
    04:00 -2°C° 0 mm 1 m/S 607 mmHg 94%
    05:00 -3°C° 0 mm 1 m/S 606 mmHg 92%
    06:00 -3°C° 0 mm 1 m/S 606 mmHg 91%
    07:00 -3°C° 0 mm 1 m/S 607 mmHg 90%
    08:00 -2°C° 0 mm 1 m/S 608 mmHg 89%
    09:00 -1°C° 0 mm 1 m/S 609 mmHg 88%
    10:00 0°C° 0 mm 1 m/S 609 mmHg 89%
    11:00 +1°C° 0 mm 1 m/S 609 mmHg 89%
    12:00 +1°C° 0 mm 0 m/S 609 mmHg 90%
    13:00 +1°C° 0.1 mm 0 m/S 609 mmHg 90%
    14:00 +1°C° 0.1 mm 0 m/S 609 mmHg 91%
    15:00 +1°C° 0.1 mm 0 m/S 609 mmHg 91%
    16:00 0°C° 0 mm 0 m/S 609 mmHg 92%
    17:00 -2°C° 0 mm 0 m/S 608 mmHg 94%
    18:00 -3°C° 0 mm 0 m/S 608 mmHg 95%
    19:00 -2°C° 0 mm 1 m/S 608 mmHg 93%
    20:00 -3°C° 0 mm 1 m/S 608 mmHg 91%
    21:00 -3°C° 0 mm 1 m/S 608 mmHg 89%
    22:00 -3°C° 0 mm 1 m/S 608 mmHg 90%
    23:00 -3°C° 0 mm 1 m/S 608 mmHg 90%

    27 Januar, Montag

    Zeit Temperatur Niederschläge Wind Luftdruck Luftfeuchtigkeit
    00:00 -3°C° 0 mm 1 m/S 608 mmHg 91%
    01:00 -3°C° 0 mm 1 m/S 608 mmHg 88%
    02:00 -3°C° 0 mm 1 m/S 608 mmHg 86%
    03:00 -4°C° 0 mm 1 m/S 608 mmHg 84%
    04:00 -4°C° 0 mm 1 m/S 608 mmHg 80%
    05:00 -3°C° 0 mm 1 m/S 608 mmHg 76%
    06:00 -5°C° 0 mm 2 m/S 608 mmHg 73%
    07:00 -2°C° 0 mm 1 m/S 608 mmHg 73%
    08:00 -1°C° 0 mm 1 m/S 609 mmHg 73%
    09:00 0°C° 0 mm 1 m/S 610 mmHg 73%
    10:00 +1°C° 0 mm 1 m/S 610 mmHg 75%
    11:00 +2°C° 0 mm 1 m/S 610 mmHg 77%
    12:00 +3°C° 0 mm 1 m/S 610 mmHg 79%
    13:00 +3°C° 0 mm 1 m/S 610 mmHg 80%
    14:00 +2°C° 0 mm 2 m/S 609 mmHg 82%
    15:00 +1°C° 0 mm 2 m/S 609 mmHg 83%
    16:00 -1°C° 0 mm 2 m/S 608 mmHg 86%
    17:00 -2°C° 0 mm 2 m/S 607 mmHg 88%
    18:00 -4°C° 0 mm 2 m/S 607 mmHg 91%
    19:00 -3°C° 0 mm 2 m/S 607 mmHg 91%
    20:00 -3°C° 0 mm 2 m/S 607 mmHg 92%
    21:00 -3°C° 0 mm 2 m/S 607 mmHg 92%
    22:00 -3°C° 0 mm 2 m/S 607 mmHg 92%
    23:00 -3°C° 0 mm 2 m/S 607 mmHg 92%

    28 Januar, Dienstag

    Zeit Temperatur Niederschläge Wind Luftdruck Luftfeuchtigkeit
    00:00 -3°C° 0 mm 2 m/S 607 mmHg 92%
    01:00 -3°C° 0 mm 2 m/S 607 mmHg 92%
    02:00 -3°C° 0 mm 2 m/S 606 mmHg 92%
    03:00 -2°C° 0 mm 2 m/S 606 mmHg 92%
    04:00 -2°C° 0 mm 2 m/S 606 mmHg 92%
    05:00 -2°C° 0 mm 2 m/S 606 mmHg 92%
    06:00 -2°C° 0 mm 2 m/S 606 mmHg 92%
    07:00 -1°C° 0 mm 2 m/S 607 mmHg 93%
    08:00 +1°C° 0 mm 1 m/S 607 mmHg 94%
    09:00 +2°C° 0 mm 1 m/S 607 mmHg 94%
    10:00 +2°C° 0 mm 1 m/S 607 mmHg 94%
    11:00 +3°C° 0 mm 1 m/S 608 mmHg 94%
    12:00 +3°C° 0 mm 1 m/S 608 mmHg 94%
    13:00 +3°C° 0.1 mm 1 m/S 608 mmHg 95%
    14:00 +3°C° 0.1 mm 1 m/S 608 mmHg 96%
    15:00 +2°C° 0.1 mm 0 m/S 607 mmHg 98%
    16:00 +2°C° 0 mm 1 m/S 607 mmHg 97%
    17:00 +2°C° 0 mm 1 m/S 607 mmHg 97%
    18:00 +2°C° 0 mm 1 m/S 607 mmHg 97%
    19:00 +1°C° 0 mm 1 m/S 607 mmHg 97%
    20:00 +1°C° 0 mm 1 m/S 607 mmHg 96%
    21:00 +1°C° 0 mm 1 m/S 607 mmHg 96%
    22:00 +1°C° 0 mm 1 m/S 607 mmHg 95%
    23:00 +1°C° 0 mm 1 m/S 607 mmHg 95%

    29 Januar, Mittwoch

    Zeit Temperatur Niederschläge Wind Luftdruck Luftfeuchtigkeit
    00:00 +1°C° 0 mm 1 m/S 607 mmHg 95%
    01:00 +1°C° 0 mm 1 m/S 606 mmHg 94%
    02:00 0°C° 0 mm 1 m/S 606 mmHg 93%
    03:00 0°C° 0 mm 1 m/S 606 mmHg 93%
    04:00 0°C° 0 mm 1 m/S 606 mmHg 91%
    05:00 -1°C° 0 mm 1 m/S 606 mmHg 90%
    06:00 -1°C° 0 mm 1 m/S 605 mmHg 89%
    07:00 0°C° 0 mm 1 m/S 606 mmHg 89%
    08:00 +1°C° 0 mm 1 m/S 607 mmHg 89%
    09:00 +2°C° 0 mm 1 m/S 608 mmHg 89%
    10:00 +2°C° 0 mm 1 m/S 608 mmHg 89%
    11:00 +3°C° 0 mm 1 m/S 608 mmHg 90%
    12:00 +4°C° 0 mm 1 m/S 609 mmHg 91%
    13:00 +3°C° 0 mm 1 m/S 608 mmHg 92%
    14:00 +3°C° 0 mm 1 m/S 608 mmHg 93%
    15:00 +3°C° 0 mm 1 m/S 608 mmHg 95%
    16:00 +2°C° 0 mm 1 m/S 608 mmHg 95%
    17:00 +2°C° 0 mm 1 m/S 608 mmHg 95%
    18:00 +1°C° 0 mm 1 m/S 608 mmHg 95%
    19:00 0°C° 0 mm 1 m/S 608 mmHg 94%
    20:00 0°C° 0 mm 1 m/S 608 mmHg 94%
    21:00 -1°C° 0 mm 1 m/S 608 mmHg 94%
    22:00 -1°C° 0 mm 1 m/S 608 mmHg 93%
    23:00 -2°C° 0 mm 1 m/S 608 mmHg 93%
    Mehr zeigen